MDCY

Samaná El Catey International Airport

Airport
ICAO code
MDCY
IATA Code
AZS
Summary
ICAO Region
CARSAM
ICAO Territory
Location

El Catey, Dominican Republic

Serving
Samaná
Elevation
12 ft
Coordinates
19° 16' 4" N , 69° 43' 50" W
KCC
Airport WX
Tropical Revolving Storm
Metar
Observation
MDCY 041500Z 24006KT 9999 FEW019 SCT080 25/23 Q1021
Station
EL CATEY INTL
Date/Time
2023-02-04 15:00:00
Wind direction
240°
Wind speed
06 kts
Lowest cloud amount
few clouds
Temperature
25°C
Dew point
23°C
Humidity
88%
QNH
1021 hPa
Weather condition
n/a

Samaná El Catey International Airport, also called Aeropuerto Internacional Presidente Juan Bosch (AISA), is an international airport that opened on 6 November 2006, serving the province of Samaná in the Dominican Republic.

Climatology

Tropical monsoon climate (Köppen climate classification Am)

Runways

Designator Length Width Surface Rops
7/25 3000 45 ASPHALT No/No

Airport map

Aerial View

SKYbrary Partners:

Safety knowledge contributed by: